Miscellaneous Local Product
Issued by NWS North Platte, NE

Home | Current Version | Previous Version | Text Only | Print | Product List | Glossary On
Versions: 1 2 3 4 5 6 7 8 9 10 11 12 13 14 15 16 17 18 19 20 21 22 23 24 25 26 27 28 29 30 31 32 33 34 35 36 37 38 39 40 41 42 43 44 45 46 47 48 49 50
000
AXUS43 KLBF 020210
MISLBF


WESTERN AND NORTH CENTRAL NEBRASKA HOURLY WEATHER ROUNDUP
NATIONAL WEATHER SERVICE NORTH PLATTE NE
900 PM CDT TUE SEP 01 2015

NOTE: "FAIR" INDICATES FEW OR NO CLOUDS BELOW 12,000 FEET WITH NO
SIGNIFICANT WEATHER AND/OR OBSTRUCTIONS TO VISIBILITY.

NOTE: STATIONS NOT REPORTING VARIABLES SUCH AS SKY/WEATHER OR
PRESSURE ARE PROVIDED BY THE NEBRASKA DEPARTMENT OF
ROADS...RAWS...AND APRS NETWORKS...AND ARE NOT UNDER
NATIONAL WEATHER SERVICE QUALITY CONTROL.

...OBSERVATIONS IN AND NEAR THE EASTERN PANHANDLE OF NEBRASKA...

CITY           SKY/WX    TMP DP  RH WIND       PRES   REMARKS
PINE RIDGE     CLEAR     71  49  45 E7        29.86R
CHADRON        CLEAR     76  48  37 S5        29.84R
ALLIANCE       CLEAR     70  47  43 S8        29.91R
SIDNEY         CLEAR     71  40  32 S8        29.97R
CRESCENT LAKE    N/A     77  51  39 S6          N/A
BIG SPRINGS      N/A     76  51  41 SE6         N/A
$$

...OBSERVATIONS IN NORTH CENTRAL NEBRASKA...

CITY           SKY/WX    TMP DP  RH WIND       PRES   REMARKS
VALENTINE      CLEAR     81  60  48 S14       29.84R
THEDFORD       CLEAR     78  59  53 S8        29.90R
AINSWORTH      CLEAR     74  63  67 SE7       29.87R
O`NEILL        CLEAR     78  67  69 SE8       29.87R
ORD            CLEAR     75  65  70 S3        29.86R
BROKEN BOW     CLEAR     79  65  62 SE6       29.89R
SPRINGVIEW       N/A     74  68  81 CALM        N/A
SARGENT          N/A     76  67  72 CALM        N/A
CHAMBERS         N/A     76  65  70 CALM        N/A
EWING            N/A     75  66  74 CALM        N/A
$$

...OBSERVATIONS IN SOUTHWEST NEBRASKA AND FAR NORTHEAST COLORADO...

CITY           SKY/WX    TMP DP  RH WIND       PRES   REMARKS
WRAY           CLOUDY    80  48  33 SE8       29.95R
HOLYOKE        FAIR      73  59  60 S9        29.95R
IMPERIAL       CLEAR     74  55  51 S6        29.92R
OGALLALA       CLEAR     78  52  39 SE7       29.92R
NORTH PLATTE   CLEAR     72  67  84 E8        29.89R
MCCOOK         CLEAR     81  58  45 E5        29.90R
LEXINGTON      CLEAR     78  67  68 E6        29.90R
PAXTON           N/A     72  62  72 CALM        N/A
BRADY            N/A     77  68  72 CALM        N/A
CALLAWAY         N/A     71  67  86 S6          N/A
$$

...OBSERVATIONS IN CENTRAL LINCOLN COUNTY AREA...

CITY           SKY/WX    TMP DP  RH WIND       PRES   REMARKS
N.P. AIRPORT   CLEAR     72  67  84 E8        29.89R
N.P. DOWNTOWN    N/A     79  69  70 CALM        N/A
N.P. SOUTHEAST   N/A     77  68  73 CALM        N/A
N.P. HILLCREST   N/A     77  67  70 SE10        N/A
$$

...SOME OBSERVATIONS FROM AROUND THE REGION...

CITY           SKY/WX    TMP DP  RH WIND       PRES   REMARKS
DENVER         MOCLDY    71  49  45 SE10      30.07S
LARAMIE        MOCLDY    63  42  46 NW9       30.23R
CHEYENNE       CLOUDY    76  37  24 W13       30.11R
SCOTTSBLUFF    CLEAR     73  56  54 E7        29.92R
RAPID CITY     CLEAR     69  56  62 CALM      29.86R
PIERRE         CLEAR     78  65  63 SE16      29.77R
WINNER         FAIR      77  65  66 SE10      29.81S
SIOUX FALLS    MOCLDY    73  71  93 NE7       29.87S
OMAHA          MOCLDY    81  68  64 SE14      29.90R
GRAND ISLAND   CLEAR     79  67  66 S7        29.89R
KANSAS CITY    CLEAR     75  67  76 S9        30.00S
WICHITA        PTCLDY    83  67  58 SE16      29.96R
HAYS           PTCLDY    86  57  37 S13       29.90R
LIBERAL        CLOUDY    84  54  34 S14       29.96S
GOODLAND       MOCLDY    78  58  49 S13       29.98R
$$



USA.gov is the U.S. government's official web portal to all federal, state and local government web resources and services.